Latest METARs, TAFs and NOTAMs for SKCL


---------------------------------------------------------------------------
	(OBSERVATIONS)
SKCL 231400Z 27004KT 9999 FEW012 SCT090 BKN200 25/22 A3001=
SKCL 231300Z 00000KT 9999 FEW017 BKN200 23/21 A3000=
SKCL 231200Z VRB02KT 8000 VCSH SCT008 BKN080 20/19 A2999 REDZ
    R MK VCSH/SE/S/SW=
---------------------------------------------------------------------------
	(TERMINAL AREA FORECAST)
SKCL 231000Z 231212 06005KT 9999 SCT020 BKN080
    TEMPO 2312/2314 5000 DZRA FEW010CB SCT018
    PROB30 TEMPO 2318/2322 32007KT 7000 VCSH SCT017CB TX31/2319Z
    TN19/2410Z=
---------------------------------------------------------------------------
	(NOTAMS)


SKCL A0302/14 RWY 01/19 TURNING BAY LTD, ACFT PROHIBITED PARALLEL
    OR ONE SURPASSES THE OTHER ACFT, EXER CTN. H24, 06 FEB 01:55
    2014 UNTIL 06 MAY 23:59 2014 ESTIMATED. CREATED: 06 FEB 01:51
    2014

SKCL A0409/14 MOVEMENT AND LDG AREA WITHOUT VERTICAL SIGNALLING,
    EXER CTN. H24, 21 FEB 14:10 2014 UNTIL 21 MAY 23:59 2014
    ESTIMATED. CREATED: 21 FEB 14:22 2014

SKCL A0948/14 ATIS CALI INFORMACION FREQ 115,5 MHZ HR SER IS
    NOW H24 REF. AIP AD 2 - SKCL 3 ITEM 18. H24, 14 APR 23:40
    2014 UNTIL PERM. CREATED: 14 APR 23:45 2014

SKCL A0951/14 APN AND APN CARGO WIP, EXER CTN. H24, 15 APR 15:06
    2014 UNTIL 29 JUL 23:59 2014. CREATED: 15 APR 16:02 2014

SKCL A0952/14 STRIP RWY 01/19 WIP, EXER CTN. 1200-2200, 15 APR
    16:16 2014 UNTIL 29 JUL 22:00 2014. CREATED: 15 APR 16:21
    2014

SKCL A0953/14 TWY A,B,C,C1,C2,D,E,F,G WIP, EXER CTN. H24, 15
    APR 16:24 2014 UNTIL 29 JUL 23:59 2014. CREATED: 15 APR 16:27
    2014

SKCL V0020/14 [DOD PROCEDURAL NOTAM] INSTRUMENT APPROACH PROCEDURE
    CHANGED DUE TO HOST CHANGE: ILS RWY 01 AMDT 1: MSA 120-200
    11700FT, 200-350 16100FT, 350-120 15300FT. FAF CROSSING ALTITUDE
    5700FT. MAP 7.1 DME/CLO. VOR RWY 19 ORIG; ANKIN 5A, 5B DEP;
    BUN 6A DEP; BUN 6C DEP - MSA 120-200 11700FT, 200-350 16100FT,
    350-120 15300FT. WIE. EXPECT DOD FLIP UPDATE 2014-05-29.
    11 FEB 20:40 2014 UNTIL 29 MAY 23:59 2014. CREATED: 11 FEB
    20:41 2014

---------------------------------------------------------------------------